Airfield :
LOGIN :

Register | Disclaimer

   EN    FR    IT 

 










Legend :    VFR   Marginal VFR   IFR   Intensive IFR   Very Intensive IFR
Visi :
Ceiling :
>= 8 km
>= 3000ft
5 to 8 km
1000 to 3000 ft
1500m to 5 km
500 to 1000 ft
800 to 1500m
200 to 500 ft
< 800m
< 200 ft
Symbols :   Thunderstorms  Fog  Heavy snow  Heavy precipitations  Wind > 20 kt
SIGMETs :     Misc.  Thunderstorms  Icing  Turbulence  Mountain Waves  Volcanic Ashes







- Airport Elevation : 56 ft
- IATA code : BZR
- Download approach charts


LFMU - Beziers / Vias

CURRENT METAR :
  • 221300Z AUTO 33011KT 290V360 CAVOK 27/07 Q1015 TEMPO 22006KT

EXPIRED METARs :
  • 221230Z AUTO 31011KT 270V020 CAVOK 26/06 Q1016 NOSIG
  • 221200Z AUTO 32010KT 270V350 CAVOK 26/06 Q1016 NOSIG
  • 221130Z AUTO VRB07KT CAVOK 25/07 Q1016 NOSIG
  • 221100Z AUTO 33011KT CAVOK 25/07 Q1016 TEMPO 22006KT
  • 221030Z AUTO 34011KT 300V020 CAVOK 24/08 Q1016 TEMPO 22006KT

TAF TAF LFMU
Valid from the 22 at 09:00 until the 23 at 09:00 UTC


220800Z 2209/2309 32014KT CAVOK
TEMPO 2212/2215 22006KT
BECMG 2222/2224 VRB02KT
ATIS : +33 4 67 90 88 88
No reported NOTAMs for that airfield.



MET'MAP, your aeronautical weather chart ! - Copyright ORBIFLY December 2007 - Disclaimer

ORBIFLY MET'MAP TEAM :

Programming & Development : Alexandra Zaïnal
Concept & Development : Baudouin d'Aumeries
Co-Development & Prog : Marc-Olivier Méhu
Technical & hardware support : Manuel Goepfert

Contact : metmap@orbifly.com




SOURCES & CREDITS :

   NOAA